STARLINK-35991 (66861 NORAD) Tracking and Keplerian Element Data

This shows tracking and keplerian element data for the satellite.

Feedback or suggestion? Click here.




ElementValue
Catalog66861
NameSTARLINK-35991
Epoch Orbit260
Epoch Day354.25003472
Epoch Year2025
RAAN76.3288
Inclination43.0007
Eccentricity0.0001143
Argument of Perigee266.169
Mean Anonmoly244.9594
Mean Motion15.75423532
Decay Rate-0.01725112
L11 66861U 25281P 25354.25003472 -.01725112 00000+0 -12520-1 0 9998
L22 66861 43.0007 76.3288 0001143 266.1690 244.9594 15.75423532 2608



Live tracking and technical data element details for STARLINK-35991 (NORAD 66861). STARLINK-35991 can be tracked NOW for your location showing map with azimuth and elevation plus other details from your city location.







IsCatalogInMostPopularTable: catalog: 66861, numindb: 17
Update: records affected: 1



GetName: 66861 STARLINK-35991

Hit Count: updated at: Wed, 15 Apr 2026 01:24:03 GMT